Regional Weather Roundup
Issued by NWS

Home | Current Version | Previous Version | Graphics & Text | Print | Product List | Glossary On
Versions: 1 2 3 4 5 6 7 8 9 10 11 12 13 14 15 16 17 18 19 20 21 22 23 24 25 26 27 28 29 30 31 32 33 34 35 36 37 38 39 40 41 42 43 44 45 46 47 48 49 50
000
ASUS43 KMPX 302210
RWRMN
WEATHER ROUNDUP FOR MINNESOTA
NATIONAL WEATHER SERVICE TWIN CITIES/CHANHASSEN MN
500 PM CDT SAT JUL 30 2016


NOTE: "FAIR" INDICATES FEW OR NO CLOUDS BELOW 12,000 FEET WITH NO
SIGNIFICANT WEATHER AND/OR OBSTRUCTIONS TO VISIBILITY. N/A MEANS
CURRENT SKY AND/OR WEATHER CONDITIONS ARE NOT AVAILABLE.

MNZ060>063-068>070-302300-
   Twin Cities Metro

CITY           SKY/WX    TMP DP  RH WIND       PRES   REMARKS
TWIN CITIES    PTSUNNY   80  62  54 SE10      29.98F
ST PAUL        MOSUNNY   78  63  59 SE8       29.98F
CRYSTAL        PTSUNNY   82  60  47 VRB7      29.97F
BLAINE         PTSUNNY   82  63  51 SE7       29.98F
LAKEVILLE      CLOUDY    75  64  69 SE10      29.99F
EDEN PRAIRIE   CLOUDY    78  64  61 S10       29.98S
LAKEVILLE      CLOUDY    75  64  69 SE10      29.99F
SOUTH ST PAUL  MOSUNNY   82  61  48 SE8       29.98S
LAKE ELMO      FAIR      79  64  61 E6        30.00F
$$
MNZ001>005-007-008-013>017-022>024-027-028-302300-
   Northwest Minnesota

CITY           SKY/WX    TMP DP  RH WIND       PRES   REMARKS
BEMIDJI        CLOUDY    76  61  59 SE6       30.00S
HALLOCK        CLOUDY    75  66  73 S14       29.90S
ROSEAU         MOSUNNY   77  66  69 S12       29.94R
WARROAD        SUNNY     79  64  61 SW8       29.95S
THIEF RVR FALL PTSUNNY   78  62  57 S13       29.95S
CROOKSTON      MOSUNNY   81  61  50 S17       29.93S
FOSSTON        MOSUNNY   79  61  53 SE10G17   29.97F
DETROIT LAKES  MOSUNNY   77  57  50 S10       29.99F
MOORHEAD       SUNNY     79  61  53 S12G17    29.94F
PARK RAPIDS    SUNNY     79  55  43 S9        29.99F
MAHNOMEN       FAIR      77  60  55 S10       29.97S
$$
MNZ006-009>011-018-025>026-302300-
   North Central Minnesota

CITY           SKY/WX    TMP DP  RH WIND       PRES   REMARKS
BAUDETTE       MOSUNNY   78  61  55 S12G20    29.96F
FLAG ISLAND    CLOUDY    77  64  65 S10       29.93S
INTL FALLS     PTSUNNY   72  62  71 SW10      30.00R
WASKISH        MOSUNNY   75  61  60 S8        29.98F
BIG FORK       CLOUDY    73  63  68 SW3       30.01F
LONGVILLE      MOSUNNY   77  57  50 SE6       30.00F
GRAND RAPIDS   SUNNY     78  54  43 VRB5      30.02F
CRANE LAKE     SUNNY     77  50  38 SW1       30.01F
ORR            SUNNY     79  48  34 S5        29.98F
COOK           MOSUNNY   77  54  44 CALM      30.02S
WALKER         CLOUDY    74  61  63 CALM      30.00F
$$
MNZ012-019>021-037-302300-
   Northeast Minnesota

CITY           SKY/WX    TMP DP  RH WIND       PRES   REMARKS
DULUTH         MOSUNNY   73  61  65 SE8       30.03F
ELY            SUNNY     77  48  36 SW6       30.02F
HIBBING        SUNNY     77  52  41 VRB5      30.01F
EVELETH        SUNNY     78  46  31 W3        30.03S
DULUTH HARBOR  MOSUNNY   70  64  83 NE9       30.03F
TWO HARBORS    SUNNY     75  61  60 E6        30.02S
SILVER BAY     SUNNY     75  61  60 SE5       30.02F
GRAND MARAIS     N/A     68  56  65 E7        30.04F
G MARAIS ARPRT SUNNY     70  48  46 E7        30.09S
$$
MNZ029>031-032-039>041-046>048-054>057-064-302300-
   West Central Minnesota

CITY           SKY/WX    TMP DP  RH WIND       PRES   REMARKS
FERGUS FALLS   SUNNY     79  57  47 S13       29.97F
WHEATON        SUNNY     81  63  54 SE10      29.97F
MORRIS         SUNNY     81  54  39 S8        29.97F
ALEXANDRIA     SUNNY     77  55  46 SE9       30.00F
ELBOW LAKE     FAIR      77  60  54 SE13      29.98F
WADENA         SUNNY     77  55  47 SE7       29.99F
GLENWOOD       SUNNY     79  57  47 SE8       30.00F
APPLETON       SUNNY     79  55  44 SE10      29.96F
BENSON         SUNNY     79  54  41 S7        29.98S
ORTONVILLE     SUNNY     79  59  50 CALM      29.96F
MADISON        SUNNY     79  57  47 E7        29.97S
WILLMAR        FAIR      79  57  47 SE6       29.99F
$$
MNZ033>034-036-042>043-049>051-058-059-302300-
   Central Minnesota

CITY           SKY/WX    TMP DP  RH WIND       PRES   REMARKS
ST CLOUD       MOSUNNY   78  63  59 SE7       29.98F
SAUK CENTRE    FAIR      79  57  48 S9        29.99F
PAYNESVILLE    SUNNY     78  57  48 S6        29.99F
AITKIN         SUNNY     81  50  34 SW3       29.99F
PINE RIVER     SUNNY     79  57  47 S5        30.03F
BRAINERD       PTSUNNY   79  59  50 VRB7      29.99F
STAPLES        SUNNY     79  54  41 E7        29.99F
LONG PRAIRIE   FAIR      77  59  53 E6        30.00F
LITTLE FALLS   MOSUNNY   77  59  53 CALM      29.99F
LITCHFIELD     SUNNY     81  59  47 E3        29.99F
BUFFALO        SUNNY     80  61  53 SW3       29.99F
MAPLE LAKE     MOSUNNY   79  65  62 CALM      29.99F
HUTCHINSON     CLOUDY    79  59  50 SE7       29.99F
$$
MNZ037-044-045-052-053-302300-
   East Central Minnesota

CITY           SKY/WX    TMP DP  RH WIND       PRES   REMARKS
PRINCETON      PTSUNNY   79  64  61 E10       29.99S
MORA           SUNNY     75  59  57 SE8       30.02S
CAMBRIDGE      SUNNY     81  63  54 E7        29.98F
RUSH CITY      RAIN      75  65  73 CALM      30.01F
MOOSE LAKE     CLOUDY    72  64  78 CALM      29.99F
HINCKLEY       MOCLDY    77  63  61 S13       30.01S
CLOQUET        MOSUNNY   75  61  60 E8        30.02F
MCGREGOR       PTSUNNY   75  61  60 E6        30.01F
$$
MNZ071>073-080-081-089-090-097-098-302300-
   Southwest Minnesota

CITY           SKY/WX    TMP DP  RH WIND       PRES   REMARKS
MONTEVIDEO     SUNNY     82  59  44 S6        29.99F
GRANITE FALLS  SUNNY     80  58  48 SE9       29.99F
CANBY          SUNNY     80  57  45 SE7       29.98F
MARSHALL       SUNNY     78  57  48 SE6       29.97F
REDWOOD FALLS  SUNNY     80  52  37 S8        29.97F
OLIVIA         SUNNY     77  55  47 SE7       29.97F
PIPESTONE      SUNNY     79  55  44 SE7       29.99F
WINDOM         SUNNY     81  57  44 S3        29.99F
WORTHINGTON    SUNNY     77  60  55 SE7       30.00F
JACKSON        MOSUNNY   79  55  44 S5        30.00S
TRACY          SUNNY     79  58  48 SE3       29.98F
SLAYTON        SUNNY     78  55  44 SE3       30.00F
$$
MNZ065>067-074>077-082>085-091>093-302300-
   South Central Minnesota

CITY           SKY/WX    TMP DP  RH WIND       PRES   REMARKS
MANKATO        MOSUNNY   79  61  53 S5        29.99S
NEW ULM        SUNNY     79  55  44 S3        29.98F
ST JAMES       MOSUNNY   73  55  53 CALM      29.99F
FAIRMONT       SUNNY     77  61  57 SE6       29.98F
GLENCOE        MOSUNNY   82  64  54 S6        29.98F
FARIBAULT      CLOUDY    79  64  61 CALM      30.01S
OWATONNA       PTSUNNY   73  66  78 CALM      30.01S
WASECA         PTSUNNY   72  64  78 NE6       30.02S
ALBERT LEA     PTSUNNY   75  68  78 CALM      30.00F
$$
MNZ078>079-086>088-094>096-302300-
   Southeast Minnesota

CITY           SKY/WX    TMP DP  RH WIND       PRES   REMARKS
ROCHESTER      PTSUNNY   77  67  71 NE7       30.01F
RED WING       CLOUDY    81  61  50 SE6       29.98S
STANTON        CLOUDY    75  66  73 E5        29.99F
DODGE CENTER   CLOUDY    79  64  61 NE7       30.01F
WINONA         PTSUNNY   79  63  57 SE5       29.99S
AUSTIN         CLOUDY    75  64  69 E3        30.00F
PRESTON        SUNNY     78  62  57 SE7       30.02S
$$
ABBREVIATIONS USED IN REMARKS
   TC - TEMPERATURES IN CELSIUS
  WCI - WIND CHILL INDEX
   HX - HEAT INDEX
  VSB - VISIBILITY
$$



USA.gov is the U.S. government's official web portal to all federal, state and local government web resources and services.